Regional Weather Roundup
Issued by NWS Burlington, VT

Current Version | Previous Version | Text Only | Print | Product List | Glossary Off
Versions: 1 2 3 4 5 6 7 8 9 10 11 12 13 14 15 16 17 18 19 20 21 22 23 24 25 26 27 28 29 30 31 32 33 34 35 36 37 38 39 40 41 42 43 44 45 46 47 48 49 50

000
ASUS41 KBTV 211830
RWRBTV
VERMONT REGIONAL WEATHER ROUNDUP
NATIONAL WEATHER SERVICE BURLINGTON VT
200 PM EDT SUN SEP 21 2014

NOTE: "FAIR" INDICATES FEW OR NO CLOUDS BELOW 12,000 FEET WITH NO
SIGNIFICANT WEATHER AND/OR OBSTRUCTIONS TO VISIBILITY.

* THESE REPORTS ARE NOT UNDER NWS QUALITY CONTROL AND/OR DO NOT
  REPORT WEATHER SUCH AS PRECIPITATION AND FOG.

VTZ001>019-211900-
_____VERMONT_____


CITY           SKY/WX    TMP DP  RH WIND       PRES   REMARKS
BURLINGTON     MOCLDY    81  59  47 S20G32    29.65F
6HR MIN TEMP:  66; 6HR MAX TEMP:  81;

MONTPELIER     CLEAR     76  60  57 S12       29.75F
6HR MIN TEMP:  58; 6HR MAX TEMP:  77;

MORRISVILLE    CLOUDY    79  59  50 S10G21    29.69F
6HR MIN TEMP:  58; 6HR MAX TEMP:  79;

ST. JOHNSBURY*   N/A     76  58  53 MISG      29.70F
6HR MIN TEMP:  58; 6HR MAX TEMP:  77;

MIDDLEBURY*    FAIR      81  57  43 S16G24    29.67F
RUTLAND*       CLEAR     81  52  36 S14G20    29.70F
6HR MIN TEMP:  63; 6HR MAX TEMP:  81;

SPRINGFIELD    PTCLDY    76  65  68 S8G18     29.74F
6HR MIN TEMP:  55; 6HR MAX TEMP:  77;

HIGHGATE*      FAIR      76  59  56 S10G25    29.62F
6HR MIN TEMP:  65; 6HR MAX TEMP:  77;

NEWPORT*       FAIR     N/A N/A N/A S9G22     29.68F
BENNINGTON     MOCLDY    77  62  59 S12       29.73F
6HR MIN TEMP:  67; 6HR MAX TEMP:  79;

ISLAND POND*     N/A     77 N/A N/A S12         N/A
GALLUP MILLS*    N/A     75 N/A N/A MISG        N/A
UNION VILLAGE*   N/A     77 N/A N/A MISG        N/A
MT. MANSFIELD*   N/A     66 N/A N/A S9G26       N/A

_____LAKE CHAMPLAIN_____


CITY           SKY/WX    TMP DP  RH WIND       PRES   REMARKS
BURTON ISLAND*   N/A     72  61  68 S18         N/A
COLCHESTER RF*   N/A     70  59  68 S26         N/A
DIAMOND ISL*     N/A     77  59  53 S23         N/A

$$

NYZ007-026>031-035-052-083-211900-
_____NORTHERN NEW YORK_____


CITY           SKY/WX    TMP DP  RH WIND       PRES   REMARKS
PLATTSBURGH    CLOUDY    73  60  63 SE14      29.62F
6HR MIN TEMP:  64; 6HR MAX TEMP:  76;

SARANAC LAKE   LGT RAIN  71  58  63 S17       29.66F
6HR MIN TEMP:  61; 6HR MAX TEMP:  74; 6HR PCP: TRACE;

MASSENA        LGT RAIN  68  66  93 S9        29.56F FOG
6HR MIN TEMP:  67; 6HR MAX TEMP:  74; 6HR PCP:  0.15;

OGDENSBURG*    CLOUDY    70  66  88 S10G16    29.54F
POTSDAM*       LGT RAIN  68  66  94 S10G24    29.57F
PARISHVILLE*     N/A     66 N/A N/A S16         N/A
WATERTOWN      PTCLDY    75  63  66 S12G23    29.56F
6HR MIN TEMP:  67; 6HR MAX TEMP:  75; 6HR PCP:  0.29;

FT DRUM        MOCLDY    68  66  94 S17       29.58F
                                      6HR PCP:  0.33;

ALBANY         MOCLDY    79  57  46 S13G24    29.71F
6HR MIN TEMP:  65; 6HR MAX TEMP:  79;

GLENS FALLS    CLEAR     79  61  53 S13       29.70F
6HR MIN TEMP:  62; 6HR MAX TEMP:  79;


$$
NHZ002-005-011-211900-
_____NEW HAMPSHIRE_____


CITY           SKY/WX    TMP DP  RH WIND       PRES   REMARKS
LEBANON        PTCLDY    77  62  59 S18G24    29.73F
6HR MIN TEMP:  58; 6HR MAX TEMP:  78;

KEENE          CLOUDY    73  61  64 SW10      29.76F
6HR MIN TEMP:  63; 6HR MAX TEMP:  73;

MT WASHINGTON  FOG       50  50 100 SW38G47     N/A  VSB 1/16
6HR MIN TEMP:  45; 6HR MAX TEMP:  51;

PLYMOUTH       MOCLDY    73  68  86 CALM      29.76F
6HR MIN TEMP:  55; 6HR MAX TEMP:  75;

WHITEFIELD     CLEAR     76  58  53 S10G20    29.76F
6HR MIN TEMP:  54; 6HR MAX TEMP:  78;


$$

_____REGIONAL QUEBEC LOCATIONS_____


CITY           SKY/WX    TMP DP  RH WIND       PRES   REMARKS
MONTREAL       LGT RAIN  70  63  78 SE13      29.58F
QUEBEC CITY    CLOUDY    68  63  83 NW3       29.65F
SHERBROOKE     MOCLDY    79  57  47 S13G25    29.67F

_____REGIONAL ONTARIO LOCATIONS_____


CITY           SKY/WX    TMP DP  RH WIND       PRES   REMARKS
OTTAWA         CLOUDY    64  63  94 S9        29.53F

______KEY______
VSB  - VISIBILITY IN MILES
WCI  - WIND CHILL INDEX
HX   - HEAT INDEX
$$



USA.gov is the U.S. government's official web portal to all federal, state and local government web resources and services.